Novato, CA

4:06 PM PST on November 18, 2019 (GMT -0800)
Gnoss

Weather History for KDVO - September, 2019

Change the Weather History Date:

Tuesday, September 24, 2019

  Actual Average (WUND) Record (WUND)
Temperature  
Mean Temperature 76 °F -  
Max Temperature 98 °F - - (-1)
Min Temperature 53 °F - - (-1)
Cooling Degree Days 10    
Growing Degree Days 26 (Base 50)    
Moisture  
Dew Point 45 °F    
Average Humidity 42    
Maximum Humidity 77    
Minimum Humidity 12    
Precipitation  
Precipitation 0.00 in - - ()
Sea Level Pressure  
Sea Level Pressure 29.93 in    
Wind  
Wind Speed 2 mph ()    
Max Wind Speed 13 mph    
Max Gust Speed 20 mph    
Visibility 9.5 miles    
Events      
Averages and records for this station are not official NWS values.
T = Trace of Precipitation, MM = Missing Value Source: Averaged Metar Reports

Daily Weather History Graph

Daily Weather History Graph

Search for Another Location

Airport or City:

Astronomy

Sep. 24, 2019 Rise Set
Actual Time 6:59 AM PDT 7:04 PM PDT
Civil Twilight 6:33 AM PDT 7:30 PM PDT
Nautical Twilight 6:02 AM PDT 8:01 PM PDT
Astronomical Twilight 5:31 AM PDT 8:32 PM PDT
Moon 1:56 AM PDT (9/24) 4:49 PM PDT (9/24)
Length of Visible Light 12h 57m
Length of Day
12h 04m
Waning Crescent, 22% of the Moon is Illuminated
Sep 24
Waning Crescent
Sep 28
New
Oct 5
First Quarter
Oct 13
Full
Oct 21
Last Quarter

Hourly Weather History & Observations

Time (PDT) Temp. Dew Point Humidity Pressure Visibility Wind Dir Wind Speed Gust Speed Precip Events Conditions
12:15 AM 57.2 °F 46.4 °F 67% 29.96 in 10.0 mi Calm Calm - N/A   Clear
12:35 AM 55.4 °F 44.6 °F 67% 29.97 in 10.0 mi Calm Calm - N/A   Clear
12:55 AM 59.0 °F 48.2 °F 67% 29.98 in 10.0 mi Calm Calm - N/A   Clear
1:15 AM 60.8 °F 50.0 °F 68% 29.97 in 10.0 mi Calm Calm - N/A   Clear
1:35 AM 59.0 °F 48.2 °F 67% 29.98 in 10.0 mi North - - N/A   Clear
1:55 AM 59.0 °F 48.2 °F 67% 29.98 in 10.0 mi Calm Calm - N/A   Clear
2:15 AM 60.8 °F 48.2 °F 63% 29.98 in 10.0 mi Variable 3.5 mph - N/A   Clear
2:35 AM 60.8 °F 48.2 °F 63% 29.98 in 10.0 mi Calm Calm - N/A   Clear
2:55 AM 60.8 °F 48.2 °F 63% 29.99 in 10.0 mi Calm Calm - N/A   Clear
3:15 AM 59.0 °F 48.2 °F 67% 29.98 in 10.0 mi SW 4.6 mph - N/A   Clear
3:35 AM 59.0 °F 48.2 °F 67% 29.98 in 10.0 mi Calm Calm - N/A   Clear
3:55 AM 60.8 °F 50.0 °F 68% 29.98 in 10.0 mi SSW 3.5 mph - N/A   Clear
4:15 AM 55.4 °F 46.4 °F 72% 29.98 in 10.0 mi Calm Calm - N/A   Clear
4:35 AM 55.4 °F 46.4 °F 72% 29.98 in 10.0 mi Calm Calm - N/A   Clear
4:55 AM 59.0 °F 48.2 °F 67% 29.98 in 10.0 mi Calm Calm - N/A   Clear
5:15 AM 53.6 °F 44.6 °F 72% 29.98 in 10.0 mi Calm Calm - N/A   Clear
5:35 AM 59.0 °F 46.4 °F 63% 29.99 in 10.0 mi Calm Calm - N/A   Clear
5:55 AM 57.2 °F 46.4 °F 67% 29.99 in 10.0 mi Calm Calm - N/A   Clear
6:15 AM 57.2 °F 48.2 °F 72% 29.99 in 10.0 mi Calm Calm - N/A   Clear
6:35 AM 59.0 °F 48.2 °F 67% 30.00 in 10.0 mi Calm Calm - N/A   Clear
6:55 AM 59.0 °F 50.0 °F 72% 30.00 in 10.0 mi Calm Calm - N/A   Clear
7:15 AM 57.2 °F 48.2 °F 72% 30.01 in 10.0 mi Calm Calm - N/A   Clear
7:35 AM 57.2 °F 50.0 °F 77% 30.01 in 10.0 mi Calm Calm - N/A   Clear
7:55 AM 60.8 °F 50.0 °F 68% 30.01 in 10.0 mi Calm Calm - N/A   Clear
8:15 AM 62.6 °F 50.0 °F 63% 30.01 in 10.0 mi Calm Calm - N/A   Clear
8:35 AM 66.2 °F 51.8 °F 60% 30.02 in 10.0 mi Calm Calm - N/A   Clear
8:55 AM 69.8 °F 51.8 °F 53% 30.02 in 10.0 mi North 5.8 mph - N/A   Clear
9:15 AM 73.4 °F 51.8 °F 47% 30.02 in 10.0 mi Calm Calm - N/A   Clear
9:30 AM 75.2 °F 51.8 °F 44% 30.02 in 10.0 mi Calm Calm - N/A   Clear
9:55 AM 77.0 °F 51.8 °F 41% 30.01 in 10.0 mi Calm Calm - N/A   Clear
10:15 AM 80.6 °F 51.8 °F 37% 30.01 in 10.0 mi Calm Calm - N/A   Clear
10:35 AM 84.2 °F 51.8 °F 33% 30.00 in 10.0 mi Calm Calm - N/A   Clear
10:55 AM 86.0 °F 50.0 °F 29% 30.00 in 10.0 mi Calm Calm - N/A   Clear
11:15 AM 89.6 °F 46.4 °F 22% 29.99 in 9.0 mi Variable 3.5 mph - N/A   Clear
11:35 AM 93.2 °F 44.6 °F 19% 29.98 in 6.0 mi Variable 4.6 mph - N/A   Haze
11:55 AM 91.4 °F 46.4 °F 21% 29.97 in 7.0 mi Variable 3.5 mph - N/A   Clear
12:15 PM 91.4 °F 46.4 °F 21% 29.96 in 4.0 mi SW 4.6 mph - N/A   Haze
12:35 PM 93.2 °F 46.4 °F 20% 29.95 in 7.0 mi East 5.8 mph 11.5 mph N/A   Clear
12:55 PM 93.2 °F 44.6 °F 19% 29.94 in 6.0 mi Variable 3.5 mph - N/A   Haze
1:15 PM 95.0 °F 42.8 °F 16% 29.93 in 7.0 mi Variable 3.5 mph - N/A   Clear
1:35 PM 96.8 °F 44.6 °F 17% 29.92 in 6.0 mi SSE 5.8 mph - N/A   Haze
1:55 PM 98.6 °F 44.6 °F 16% 29.91 in 9.0 mi ESE 5.8 mph - N/A   Clear
2:15 PM 96.8 °F 42.8 °F 16% 29.90 in 8.0 mi Calm Calm 11.5 mph N/A   Clear
2:35 PM 98.6 °F 44.6 °F 16% 29.88 in 10.0 mi ESE 6.9 mph - N/A   Clear
2:55 PM 98.6 °F 42.8 °F 15% 29.88 in 10.0 mi Variable 5.8 mph 11.5 mph N/A   Clear
3:15 PM 98.6 °F 42.8 °F 15% 29.88 in 10.0 mi West 12.7 mph - N/A   Clear
3:35 PM 98.6 °F 42.8 °F 15% 29.87 in 10.0 mi WSW 11.5 mph 17.3 mph N/A   Clear
3:55 PM 96.8 °F 41.0 °F 15% 29.86 in 10.0 mi WSW 10.4 mph 19.6 mph N/A   Clear
4:15 PM 96.8 °F 41.0 °F 15% 29.86 in 10.0 mi WSW 10.4 mph 16.1 mph N/A   Clear
4:35 PM 96.8 °F 39.2 °F 14% 29.85 in 10.0 mi WSW 12.7 mph - N/A   Clear
4:55 PM 95.0 °F 35.6 °F 12% 29.85 in 10.0 mi WSW 9.2 mph - N/A   Clear
5:15 PM 95.0 °F 35.6 °F 12% 29.84 in 10.0 mi WSW 9.2 mph - N/A   Clear
5:35 PM 93.2 °F 35.6 °F 13% 29.84 in 10.0 mi Calm Calm 11.5 mph N/A   Clear
5:55 PM 93.2 °F 35.6 °F 13% 29.84 in 10.0 mi North 5.8 mph - N/A   Clear
6:15 PM 89.6 °F 35.6 °F 15% 29.84 in 10.0 mi Variable 5.8 mph - N/A   Clear
6:35 PM 86.0 °F 37.4 °F 18% 29.84 in 10.0 mi East 4.6 mph - N/A   Clear
6:55 PM 86.0 °F 37.4 °F 18% 29.84 in 10.0 mi East 5.8 mph - N/A   Clear
7:15 PM 86.0 °F 37.4 °F 18% 29.84 in 10.0 mi Calm Calm - N/A   Clear
7:35 PM 82.4 °F 37.4 °F 20% 29.83 in 10.0 mi Calm Calm - N/A   Clear
7:55 PM 75.2 °F 39.2 °F 27% 29.83 in 10.0 mi Calm Calm - N/A   Clear
8:15 PM 71.6 °F 39.2 °F 31% 29.83 in 10.0 mi Calm Calm - N/A   Clear
8:35 PM 71.6 °F 39.2 °F 31% 29.83 in 10.0 mi Calm Calm - N/A   Clear
8:55 PM 69.8 °F 42.8 °F 38% 29.84 in 10.0 mi NE 3.5 mph - N/A   Clear
9:15 PM 68.0 °F 42.8 °F 40% 29.83 in 10.0 mi Calm Calm - N/A   Clear
9:35 PM 68.0 °F 51.8 °F 56% 29.83 in 10.0 mi Calm Calm - N/A   Clear
9:55 PM 68.0 °F 50.0 °F 52% 29.83 in 9.0 mi Calm Calm - N/A   Clear
10:15 PM 66.2 °F 44.6 °F 46% 29.83 in 10.0 mi Calm Calm - N/A   Clear
10:55 PM 66.2 °F 46.4 °F 49% 29.83 in 10.0 mi Calm Calm - N/A   Clear
11:15 PM 64.4 °F 46.4 °F 52% 29.83 in 6.0 mi Calm Calm - N/A   Haze
11:35 PM 62.6 °F 46.4 °F 55% 29.83 in 9.0 mi Calm Calm - N/A   Clear
11:55 PM 64.4 °F 48.2 °F 56% 29.83 in 10.0 mi Calm Calm - N/A   Clear